Retour au catalogue

CZ-6A DEB

ActifPO
NORAD 60694·DEBRIS·🇨🇳 China

Lancé Aug 6, 2024 depuis Taiyuan Satellite Launch Center

Loading…

Prochains Passages (prochaines 24 heures)

TLE

FraisSource: Space-Track

Époque: Sep 14, 2026, 11:10 UTC

1 60694U 24140CX  26257.46536119  .00000778  00000-0  37022-3 0  9992
2 60694  89.0053 265.9155 0057129 277.6302  81.8401 14.17648294108553

Suivez CZ-6A DEB en temps réel avec AllMySat

Download on the App Store